Location: Forst
(46.9333°N, 15.4333°E)
Time: 15:37:28
(UTC+00:00)

Cosmos 1933 - Pass Details

Date: 01 December 2020
Orbit: 546 x 564 km, 82.5° (Epoch: 27 January)

Event Time Altitude Azimuth Distance (km) Brightness Sun altitude
Rises 16:27:35 0° 194° (SSW) 2,720 7.3 -12.6°
Reaches altitude 10° 16:29:45 10° 197° (SSW) 1,834 6.5 -12.9°
Maximum altitude 16:33:46 68° 280° (W) 604 3.7 -13.6°
Drops below altitude 10° 16:37:51 10° 4° (N) 1,860 5.8 -14.3°
Sets 16:40:04 0° 7° (N) 2,763 6.7 -14.6°
Enters shadow 16:40:12 -1° 8° (N) 2,823 6.7 -14.6°
